Location: Mohawk View
(42.7837°N, 73.7885°W)
Time: 07:53:52
(UTC+00:00)

FALCON 9 DEB - Pass Details

Date: 17 June 2021
Orbit: 359 x 376 km, 53.0° (Epoch: 27 July)

Event Time Altitude Azimuth Distance (km) Brightness Sun altitude
Exits shadow 03:57:30 36° 307° (NW) 627 4.3 -22.5°
Maximum altitude 03:57:58 39° 331° (NNW) 595 4.3 -22.5°
Drops below altitude 10° 04:00:57 10° 42° (NE) 1,409 6.1 -22.6°
Sets 04:03:05 0° 50° (NE) 2,264 7.1 -22.7°
